User: anonymous   Login
Location: Noordwijk
(52.2400°N, 4.4500°E)
Time: 18:19:50
(UTC+00:00)
Language:

DIWATA 2B (PO-101) - Orbit

View from above orbital plane
View from above orbital plane
View from above satellite
View from above satellite

Ground track
Ground track

The orbit data is extracted from the following two-line orbital elements,

1 43678U 18084H   22334.20022467  .00000720  00000-0  75851-4 0  9995
2 43678  97.9935 109.6850 0011132  97.3765 262.8755 14.92509468222577
Epoch (UTC): 30 November 2022 04:48:19
Eccentricity: 0.0011132
inclination: 97.9935°
perigee height: 582 km
apogee height: 598 km
right ascension of ascending node: 109.6850°
argument of perigee: 97.3765°
revolutions per day: 14.92509468
mean anomaly at epoch: 262.8755°
orbit number at epoch: 22257

The dashed part of the orbit path shows where the satellite is in the earth's shadow,  

DLR